FW8186 Weather Reports


Display with metric or nautical units.
time (UTC)temp
F
wind
direction
speed
MPH
gust
MPH
rain 1hr
in
rain 24hr
in
rain mn
in
humidity
%
barometer
mb
20260504213003 81 203 13.0 20.0 0.00 0.00 0.00 48 1047.1
20260504211503 81 178 22.0 25.0 0.00 0.00 0.00 46 1047.4
20260504210003 81 205 18.0 22.0 0.00 0.00 0.00 46 1047.4
20260504204503 81 184 20.0 21.0 0.00 0.00 0.00 45 1047.7
20260504203003 82 188 19.0 26.0 0.00 0.00 0.00 43 1047.7
20260504201503 82 210 17.0 27.0 0.00 0.00 0.00 43 1048.1
20260504200003 81 159 16.0 23.0 0.00 0.00 0.00 44 1048.4
20260504194503 81 188 17.0 24.0 0.00 0.00 0.00 42 1048.8
20260504193003 82 203 15.0 19.0 0.00 0.00 0.00 42 1049.1
20260504191503 81 206 13.0 23.0 0.00 0.00 0.00 44 1049.1
20260504190003 80 206 14.0 22.0 0.00 0.00 0.00 44 1049.1
20260504184503 80 191 16.0 17.0 0.00 0.00 0.00 43 1049.4
20260504183004 79 188 19.0 21.0 0.00 0.00 0.00 45 1049.8
20260504181503 79 207 20.0 24.0 0.00 0.00 0.00 43 1049.8
20260504180003 79 172 21.0 22.0 0.00 0.00 0.00 43 1050.5
20260504174503 79 204 14.0 23.0 0.00 0.00 0.00 43 1050.5
20260504171503 78 222 19.0 23.0 0.00 0.00 0.00 43 1050.5
20260504140502 68 219 19.0 21.0 0.00 0.00 0.00 50 1051.8
20260504130503 64 211 13.0 21.0 0.00 0.00 0.00 55 1051.8
20260504050005 70 197 12.0 17.0 0.00 0.00 0.00 39 1055.2
20260504044503 70 188 15.0 18.0 0.00 0.00 0.00 39 1055.2
20260504043003 70 203 15.0 17.0 0.00 0.00 0.00 39 1055.5
20260504041503 70 223 13.0 18.0 0.00 0.00 0.00 38 1055.5
20260504040003 71 198 9.0 17.0 0.00 0.00 0.00 38 1055.9
20260504031503 73 222 16.0 23.0 0.00 0.00 0.00 35 1055.5
20260504030003 73 193 15.0 21.0 0.00 0.00 0.00 35 1055.5
20260504024503 73 191 17.0 18.0 0.00 0.00 0.00 34 1055.5
20260504021503 74 194 9.0 20.0 0.00 0.00 0.00 33 1055.5
20260504020003 75 196 15.0 20.0 0.00 0.00 0.00 32 1055.2
20260504014502 75 174 13.0 21.0 0.00 0.00 0.00 31 1055.2
20260504013004 76 200 10.0 15.0 0.00 0.00 0.00 30 1055.2
20260504012003 76 186 14.0 21.0 0.00 0.00 0.00 30 1055.2
20260504010503 77 182 16.0 18.0 0.00 0.00 0.00 28 1055.2
20260504005004 78 205 11.0 21.0 0.00 0.00 0.00 27 1055.2
20260504003503 79 219 11.0 22.0 0.00 0.00 0.00 26 1055.2
20260504002003 80 217 17.0 21.0 0.00 0.00 0.00 25 1055.2
20260504000503 81 209 11.0 19.0 0.00 0.00 0.00 25 1055.5
20260503235003 81 189 11.0 18.0 0.00 0.00 0.00 25 1055.5
20260503233503 82 215 14.0 20.0 0.00 0.00 0.00 24 1055.5
20260503232003 82 250 14.0 20.0 0.00 0.00 0.00 24 1055.5
20260503230503 82 172 9.0 22.0 0.00 0.00 0.00 23 1055.9
20260503225004 82 226 20.0 22.0 0.00 0.00 0.00 22 1055.9
20260503223503 83 209 16.0 23.0 0.00 0.00 0.00 23 1055.9
20260503222502 84 180 17.0 17.0 0.00 0.00 0.00 21 1056.2
20260503221003 83 216 23.0 28.0 0.00 0.00 0.00 22 1056.2
20260503215503 84 189 15.0 21.0 0.00 0.00 0.00 22 1056.2
20260503214003 84 205 15.0 22.0 0.00 0.00 0.00 23 1056.6